FDX3553 KMEM-KFAR

Flight info

Callsign FDX3553
Flight time 2h 3m
Altitude 34000
Route JTEEE5 ODATE HESTN JAVAS RWF FAR
Aircraft B77L/H-SDE1E2E3FGHIJ2J3J4J5M1RWXY/LB1D1

Departure

Time 2026-04-21 17:58
Airport Memphis International Airport (KMEM)

Arrival

Time 2026-04-21 20:01
Airport Hector International Airport (KFAR)
Time Latitude Longitude Altitude Speed Heading
2026-04-21 17:32 35.05525 -89.96639 276 ft 0 kts 90°
2026-04-21 17:53 35.05534 -89.96622 276 ft 7 kts 36°
2026-04-21 17:53 35.05602 -89.96601 276 ft 12 kts
2026-04-21 17:54 35.05642 -89.96691 276 ft 16 kts 271°
2026-04-21 17:54 35.05644 -89.96843 276 ft 19 kts 271°
2026-04-21 17:54 35.05645 -89.96959 276 ft 7 kts 270°
2026-04-21 17:54 35.05652 -89.97064 276 ft 16 kts 276°
2026-04-21 17:55 35.05642 -89.97219 276 ft 19 kts 248°
2026-04-21 17:55 35.05567 -89.97357 277 ft 16 kts 233°
2026-04-21 17:55 35.05518 -89.97447 278 ft 13 kts 236°
2026-04-21 17:55 35.05509 -89.97463 279 ft 0 kts 236°
2026-04-21 17:56 35.05489 -89.97499 279 ft 0 kts 235°
2026-04-21 17:56 35.05485 -89.97506 279 ft 3 kts 235°
2026-04-21 17:56 35.05453 -89.97561 279 ft 11 kts 234°
2026-04-21 17:56 35.05414 -89.97609 279 ft 5 kts 197°
2026-04-21 17:57 35.05388 -89.97614 280 ft 0 kts 180°
2026-04-21 17:57 35.05362 -89.97614 281 ft 21 kts 180°
2026-04-21 17:57 35.04923 -89.97601 290 ft 103 kts 180°
2026-04-21 17:57 35.03964 -89.97590 350 ft 169 kts 181°
2026-04-21 17:58 35.02699 -89.97553 982 ft 193 kts 180°
2026-04-21 17:58 35.01253 -89.97520 1663 ft 226 kts 181°
2026-04-21 17:58 34.99644 -89.97498 2826 ft 238 kts 180°
2026-04-21 17:58 34.98119 -89.97398 4568 ft 220 kts 178°
2026-04-21 17:59 34.96670 -89.97135 5807 ft 218 kts 172°
2026-04-21 17:59 34.95154 -89.96729 6677 ft 229 kts 176°
2026-04-21 17:59 34.93591 -89.96780 7604 ft 233 kts 194°
2026-04-21 17:59 34.92104 -89.97557 8446 ft 241 kts 216°
2026-04-21 18:00 34.90953 -89.99032 9486 ft 245 kts 237°
2026-04-21 18:00 34.90348 -90.00962 10401 ft 255 kts 259°
2026-04-21 18:00 34.90423 -90.03172 11185 ft 274 kts 285°
2026-04-21 18:00 34.91329 -90.05202 12252 ft 282 kts 309°
2026-04-21 18:01 34.92680 -90.06953 13376 ft 286 kts 309°
2026-04-21 18:01 34.93892 -90.08913 14167 ft 300 kts 298°
2026-04-21 18:01 34.94862 -90.11209 14883 ft 317 kts 297°
2026-04-21 18:01 34.96293 -90.13337 15564 ft 339 kts 320°
2026-04-21 18:02 34.97666 -90.14327 16001 ft 355 kts 337°
2026-04-21 18:02 35.01049 -90.14770 16910 ft 385 kts
2026-04-21 18:02 35.03766 -90.14329 17682 ft 401 kts
2026-04-21 18:02 35.06543 -90.13833 18546 ft 413 kts
2026-04-21 18:03 35.09401 -90.13320 19568 ft 420 kts
2026-04-21 18:03 35.12290 -90.12801 20646 ft 424 kts
2026-04-21 18:03 35.15236 -90.12270 21670 ft 429 kts
2026-04-21 18:03 35.18176 -90.11742 22617 ft 434 kts
2026-04-21 18:04 35.21206 -90.11195 23562 ft 439 kts
2026-04-21 18:04 35.24225 -90.10651 24308 ft 439 kts
2026-04-21 18:04 35.27253 -90.10104 24713 ft 446 kts
2026-04-21 18:04 35.30336 -90.09548 25100 ft 452 kts
2026-04-21 18:05 35.33474 -90.08981 25592 ft 456 kts
2026-04-21 18:05 35.36621 -90.08410 26114 ft 458 kts
2026-04-21 18:05 35.39783 -90.07837 26582 ft 461 kts
2026-04-21 18:05 35.42952 -90.07262 26993 ft 465 kts
2026-04-21 18:06 35.46161 -90.06679 27407 ft 468 kts
2026-04-21 18:06 35.49391 -90.06091 27830 ft 471 kts
2026-04-21 18:06 35.52645 -90.05498 28210 ft 475 kts
2026-04-21 18:06 35.55973 -90.04891 28255 ft 478 kts
2026-04-21 18:07 35.62541 -90.03793 28256 ft 471 kts 358°
2026-04-21 18:07 35.69065 -90.04096 28247 ft 466 kts 351°
2026-04-21 18:08 35.75582 -90.04669 28447 ft 474 kts 351°
2026-04-21 18:08 35.78917 -90.04969 28652 ft 485 kts 351°
2026-04-21 18:08 35.82295 -90.05274 28934 ft 493 kts 351°
2026-04-21 18:09 35.85743 -90.05584 29408 ft 496 kts 351°
2026-04-21 18:09 35.89199 -90.05893 30033 ft 496 kts 351°
2026-04-21 18:09 35.91505 -90.06034 30543 ft 497 kts 355°
2026-04-21 18:09 35.96084 -90.05872 31630 ft 490 kts 353°
2026-04-21 18:10 35.99414 -90.06294 32385 ft 479 kts 344°
2026-04-21 18:10 36.02625 -90.07297 33106 ft 468 kts 336°
2026-04-21 18:10 36.05666 -90.08632 33749 ft 464 kts 335°
2026-04-21 18:10 36.08673 -90.09994 34182 ft 465 kts 335°
2026-04-21 18:11 36.14803 -90.12780 34219 ft 463 kts 335°
2026-04-21 18:11 36.20841 -90.15527 34225 ft 462 kts 335°
2026-04-21 18:12 36.26887 -90.18284 34222 ft 464 kts 335°
2026-04-21 18:12 36.32939 -90.21047 34213 ft 462 kts 335°
2026-04-21 18:13 36.38989 -90.23815 34208 ft 464 kts 335°
2026-04-21 18:13 36.45049 -90.26592 34208 ft 463 kts 335°
2026-04-21 18:14 36.54160 -90.30775 34205 ft 463 kts 335°
2026-04-21 18:15 36.60194 -90.33550 34205 ft 464 kts 335°
2026-04-21 18:15 36.66283 -90.36356 34204 ft 464 kts 336°
2026-04-21 18:16 36.72324 -90.39144 34214 ft 464 kts 336°
2026-04-21 18:16 36.78382 -90.41946 34205 ft 464 kts 336°
2026-04-21 18:17 36.84437 -90.44750 34200 ft 465 kts 336°
2026-04-21 18:17 36.90521 -90.47572 34191 ft 465 kts 336°
2026-04-21 18:18 36.96582 -90.50389 34179 ft 466 kts 336°
2026-04-21 18:18 37.02629 -90.53204 34179 ft 465 kts 336°
2026-04-21 18:19 37.08684 -90.56026 34174 ft 464 kts 336°
2026-04-21 18:19 37.14762 -90.58865 34175 ft 464 kts 336°
2026-04-21 18:20 37.20816 -90.61697 34164 ft 465 kts 336°
2026-04-21 18:20 37.26864 -90.64531 34168 ft 465 kts 336°
2026-04-21 18:21 37.32947 -90.67386 34171 ft 464 kts 336°
2026-04-21 18:21 37.39025 -90.70244 34185 ft 464 kts 336°
2026-04-21 18:22 37.45073 -90.73092 34178 ft 463 kts 336°
2026-04-21 18:22 37.51096 -90.75933 34186 ft 463 kts 336°
2026-04-21 18:23 37.57115 -90.78777 34171 ft 464 kts 336°
2026-04-21 18:23 37.63185 -90.81651 34162 ft 463 kts 336°
2026-04-21 18:24 37.69220 -90.84512 34162 ft 462 kts 336°
2026-04-21 18:24 37.75256 -90.87380 34149 ft 463 kts 336°
2026-04-21 18:25 37.81274 -90.90242 34157 ft 463 kts 336°
2026-04-21 18:25 37.87284 -90.93106 34141 ft 463 kts 336°
2026-04-21 18:26 37.93329 -90.95991 34141 ft 464 kts 336°
2026-04-21 18:26 37.99383 -90.98884 34141 ft 462 kts 336°
2026-04-21 18:27 38.05280 -91.02093 34141 ft 459 kts 331°
2026-04-21 18:27 38.10984 -91.05663 34153 ft 459 kts 331°
2026-04-21 18:28 38.16742 -91.09271 34148 ft 458 kts 331°
2026-04-21 18:28 38.22448 -91.12851 34143 ft 459 kts 331°
2026-04-21 18:29 38.28209 -91.16470 34145 ft 459 kts 331°
2026-04-21 18:29 38.33940 -91.20075 34130 ft 458 kts 331°
2026-04-21 18:30 38.39663 -91.23681 34130 ft 459 kts 331°
2026-04-21 18:30 38.45387 -91.27294 34114 ft 458 kts 331°
2026-04-21 18:31 38.51076 -91.30891 34115 ft 458 kts 331°
2026-04-21 18:31 38.56814 -91.34525 34103 ft 457 kts 331°
2026-04-21 18:32 38.62500 -91.38134 34101 ft 457 kts 331°
2026-04-21 18:32 38.68180 -91.41744 34092 ft 457 kts 331°
2026-04-21 18:33 38.73898 -91.45386 34090 ft 458 kts 331°
2026-04-21 18:33 38.79618 -91.49035 34081 ft 456 kts 331°
2026-04-21 18:34 38.85257 -91.52638 34074 ft 456 kts 332°
2026-04-21 18:34 38.90951 -91.56284 34082 ft 456 kts 332°
2026-04-21 18:35 38.95672 -91.59312 34076 ft 456 kts 332°
2026-04-21 18:35 39.02306 -91.63573 34076 ft 457 kts 332°
2026-04-21 18:36 39.07991 -91.67233 34076 ft 456 kts 331°
2026-04-21 18:36 39.13609 -91.70856 34084 ft 455 kts 331°
2026-04-21 18:37 39.19313 -91.74541 34079 ft 453 kts 331°
2026-04-21 18:37 39.24970 -91.78202 34076 ft 453 kts 331°
2026-04-21 18:38 39.30590 -91.81847 34070 ft 453 kts 331°
2026-04-21 18:38 39.36231 -91.85511 34055 ft 453 kts 331°
2026-04-21 18:39 39.41853 -91.89170 34041 ft 453 kts 332°
2026-04-21 18:39 39.47464 -91.92828 34039 ft 452 kts 332°
2026-04-21 18:40 39.53070 -91.96488 34035 ft 451 kts 332°
2026-04-21 18:40 39.57768 -91.99562 34037 ft 451 kts 332°
2026-04-21 18:41 39.64281 -92.03831 34035 ft 451 kts 332°
2026-04-21 18:41 39.69902 -92.07523 34033 ft 451 kts 332°
2026-04-21 18:42 39.75453 -92.11175 34028 ft 450 kts 332°
2026-04-21 18:42 39.81070 -92.14877 34020 ft 450 kts 332°
2026-04-21 18:43 39.86637 -92.18552 34009 ft 449 kts 332°
2026-04-21 18:43 39.92227 -92.22250 34015 ft 449 kts 332°
2026-04-21 18:44 39.97769 -92.25923 34006 ft 449 kts 332°
2026-04-21 18:44 40.03347 -92.29627 33997 ft 450 kts 332°
2026-04-21 18:45 40.08939 -92.33347 34000 ft 449 kts 332°
2026-04-21 18:45 40.14502 -92.37054 34007 ft 450 kts 332°
2026-04-21 18:46 40.20050 -92.40758 34002 ft 449 kts 332°
2026-04-21 18:46 40.25635 -92.44495 34004 ft 447 kts 332°
2026-04-21 18:47 40.31166 -92.48202 33991 ft 448 kts 332°
2026-04-21 18:47 40.36721 -92.51931 33988 ft 450 kts 332°
2026-04-21 18:48 40.41939 -92.55441 33987 ft 448 kts 332°
2026-04-21 18:48 40.47648 -92.59287 33980 ft 449 kts 332°
2026-04-21 18:49 40.53196 -92.63033 33982 ft 447 kts 332°
2026-04-21 18:49 40.57799 -92.66145 33976 ft 447 kts 331°
2026-04-21 18:50 40.64238 -92.70509 33983 ft 447 kts 331°
2026-04-21 18:50 40.69784 -92.74274 33982 ft 447 kts 331°
2026-04-21 18:51 40.75298 -92.78025 33979 ft 445 kts 332°
2026-04-21 18:51 40.80899 -92.81554 33977 ft 446 kts 335°
2026-04-21 18:52 40.86595 -92.84888 33974 ft 448 kts 334°
2026-04-21 18:52 40.92239 -92.88220 33962 ft 446 kts 334°
2026-04-21 18:53 40.97916 -92.91589 33962 ft 447 kts 334°
2026-04-21 18:53 41.03568 -92.94957 33947 ft 443 kts 334°
2026-04-21 18:54 41.09202 -92.98323 33952 ft 445 kts 335°
2026-04-21 18:54 41.14843 -93.01701 33955 ft 446 kts 334°
2026-04-21 18:55 41.19574 -93.04540 33963 ft 445 kts 334°
2026-04-21 18:55 41.26131 -93.08483 33957 ft 444 kts 334°
2026-04-21 18:56 41.31744 -93.11865 33952 ft 442 kts 335°
2026-04-21 18:56 41.37333 -93.15240 33946 ft 443 kts 335°
2026-04-21 18:57 41.42921 -93.18620 33949 ft 442 kts 335°
2026-04-21 18:57 41.48526 -93.22018 33934 ft 440 kts 335°
2026-04-21 18:58 41.54109 -93.25408 33929 ft 439 kts 335°
2026-04-21 18:58 41.59670 -93.28791 33925 ft 441 kts 335°
2026-04-21 18:59 41.65243 -93.32188 33933 ft 438 kts 335°
2026-04-21 18:59 41.70755 -93.35555 33926 ft 437 kts 335°
2026-04-21 19:00 41.76291 -93.38942 33933 ft 437 kts 335°
2026-04-21 19:00 41.81853 -93.42351 33925 ft 439 kts 335°
2026-04-21 19:01 41.87368 -93.45739 33924 ft 436 kts 335°
2026-04-21 19:01 41.92904 -93.49146 33918 ft 436 kts 335°
2026-04-21 19:02 41.98386 -93.52525 33920 ft 434 kts 335°
2026-04-21 19:02 42.03869 -93.55913 33917 ft 434 kts 335°
2026-04-21 19:03 42.09366 -93.59315 33917 ft 433 kts 335°
2026-04-21 19:03 42.14834 -93.62706 33927 ft 434 kts 335°
2026-04-21 19:04 42.20322 -93.66116 33931 ft 432 kts 334°
2026-04-21 19:04 42.25763 -93.69502 33929 ft 432 kts 334°
2026-04-21 19:05 42.31199 -93.72893 33925 ft 431 kts 334°
2026-04-21 19:05 42.36641 -93.76293 33928 ft 431 kts 334°
2026-04-21 19:06 42.42114 -93.79720 33922 ft 430 kts 334°
2026-04-21 19:06 42.47534 -93.83120 33921 ft 429 kts 335°
2026-04-21 19:07 42.52938 -93.86517 33919 ft 430 kts 335°
2026-04-21 19:07 42.58392 -93.89951 33917 ft 430 kts 335°
2026-04-21 19:08 42.63817 -93.93373 33920 ft 429 kts 335°
2026-04-21 19:08 42.69218 -93.96787 33916 ft 428 kts 334°
2026-04-21 19:09 42.74625 -94.00211 33915 ft 428 kts 334°
2026-04-21 19:09 42.80011 -94.03629 33913 ft 428 kts 334°
2026-04-21 19:10 42.85381 -94.07044 33906 ft 428 kts 334°
2026-04-21 19:10 42.90781 -94.10484 33910 ft 428 kts 335°
2026-04-21 19:11 42.96160 -94.13917 33907 ft 426 kts 335°
2026-04-21 19:11 43.01538 -94.17356 33911 ft 426 kts 335°
2026-04-21 19:12 43.05985 -94.20205 33909 ft 425 kts 335°
2026-04-21 19:12 43.12244 -94.24223 33929 ft 425 kts 335°
2026-04-21 19:13 43.17619 -94.27680 33927 ft 426 kts 335°
2026-04-21 19:13 43.22929 -94.31102 33924 ft 423 kts 335°
2026-04-21 19:14 43.28274 -94.34553 33921 ft 424 kts 335°
2026-04-21 19:14 43.33604 -94.38002 33919 ft 424 kts 335°
2026-04-21 19:15 43.38910 -94.41442 33925 ft 423 kts 335°
2026-04-21 19:15 43.44234 -94.44900 33931 ft 422 kts 335°
2026-04-21 19:16 43.49561 -94.48367 33935 ft 422 kts 335°
2026-04-21 19:16 43.54850 -94.51816 33937 ft 422 kts 335°
2026-04-21 19:17 43.62815 -94.57022 33929 ft 422 kts 334°
2026-04-21 19:17 43.68079 -94.60471 33928 ft 421 kts 334°
2026-04-21 19:18 43.73349 -94.63931 33924 ft 421 kts 334°
2026-04-21 19:18 43.78602 -94.67387 33925 ft 420 kts 334°
2026-04-21 19:19 43.83895 -94.70876 33920 ft 420 kts 334°
2026-04-21 19:19 43.89151 -94.74348 33921 ft 420 kts 334°
2026-04-21 19:20 43.94398 -94.77819 33929 ft 418 kts 334°
2026-04-21 19:20 43.99627 -94.81286 33937 ft 417 kts 334°
2026-04-21 19:21 44.04872 -94.84771 33934 ft 419 kts 334°
2026-04-21 19:21 44.10133 -94.88273 33927 ft 418 kts 334°
2026-04-21 19:22 44.15399 -94.91785 33946 ft 418 kts 334°
2026-04-21 19:22 44.20616 -94.95271 33948 ft 415 kts 334°
2026-04-21 19:23 44.25795 -94.98739 33944 ft 415 kts 334°
2026-04-21 19:23 44.31027 -95.02249 33940 ft 418 kts 334°
2026-04-21 19:24 44.36248 -95.05759 33942 ft 415 kts 334°
2026-04-21 19:24 44.41463 -95.09272 33941 ft 416 kts 334°
2026-04-21 19:25 44.46693 -95.12801 33944 ft 417 kts 334°
2026-04-21 19:25 44.51813 -95.16563 33944 ft 418 kts 331°
2026-04-21 19:26 44.56929 -95.20416 33943 ft 416 kts 332°
2026-04-21 19:26 44.62015 -95.24239 33945 ft 416 kts 332°
2026-04-21 19:27 44.67108 -95.28069 33944 ft 416 kts 332°
2026-04-21 19:27 44.72208 -95.31908 33945 ft 414 kts 332°
2026-04-21 19:28 44.77277 -95.35729 33941 ft 418 kts 331°
2026-04-21 19:28 44.82396 -95.39596 33948 ft 416 kts 332°
2026-04-21 19:29 44.87499 -95.43457 33943 ft 416 kts 331°
2026-04-21 19:29 44.90010 -95.45360 33739 ft 406 kts 331°
2026-04-21 19:29 44.92454 -95.47214 33208 ft 402 kts 331°
2026-04-21 19:30 44.94898 -95.49069 32662 ft 399 kts 331°
2026-04-21 19:30 44.97352 -95.50934 32106 ft 396 kts 331°
2026-04-21 19:30 44.99770 -95.52773 31546 ft 393 kts 331°
2026-04-21 19:30 45.02134 -95.54573 30996 ft 390 kts 331°
2026-04-21 19:31 45.04514 -95.56387 30440 ft 388 kts 330°
2026-04-21 19:31 45.06875 -95.58189 29888 ft 385 kts 330°
2026-04-21 19:31 45.09231 -95.59988 29368 ft 382 kts 330°
2026-04-21 19:31 45.11519 -95.61736 29259 ft 368 kts 330°
2026-04-21 19:32 45.13712 -95.63412 29250 ft 353 kts 330°
2026-04-21 19:32 45.15794 -95.65005 29257 ft 338 kts 329°
2026-04-21 19:32 45.17877 -95.66602 29237 ft 322 kts 329°
2026-04-21 19:32 45.19814 -95.68088 28816 ft 320 kts 329°
2026-04-21 19:33 45.21128 -95.69097 28486 ft 320 kts 329°
2026-04-21 19:33 45.23730 -95.71097 27799 ft 320 kts 329°
2026-04-21 19:33 45.25695 -95.72607 27285 ft 320 kts 329°
2026-04-21 19:33 45.27638 -95.74102 26772 ft 320 kts 329°
2026-04-21 19:34 45.29610 -95.75622 26251 ft 320 kts 329°
2026-04-21 19:34 45.31547 -95.77114 25740 ft 321 kts 329°
2026-04-21 19:34 45.33512 -95.78629 25223 ft 322 kts 329°
2026-04-21 19:34 45.35480 -95.80148 24700 ft 322 kts 329°
2026-04-21 19:35 45.37430 -95.81654 24172 ft 324 kts 329°
2026-04-21 19:35 45.41421 -95.84742 23103 ft 330 kts 329°
2026-04-21 19:35 45.43462 -95.86322 22568 ft 332 kts 329°
2026-04-21 19:36 45.45475 -95.87882 22037 ft 333 kts 329°
2026-04-21 19:36 45.47509 -95.89459 21500 ft 334 kts 329°
2026-04-21 19:36 45.49546 -95.91040 20975 ft 335 kts 329°
2026-04-21 19:36 45.51603 -95.92638 20436 ft 335 kts 329°
2026-04-21 19:37 45.53639 -95.94222 19901 ft 336 kts 329°
2026-04-21 19:37 45.55709 -95.95833 19378 ft 349 kts 329°
2026-04-21 19:37 45.57885 -95.97531 18839 ft 364 kts 329°
2026-04-21 19:37 45.60131 -95.99281 18294 ft 364 kts 329°
2026-04-21 19:38 45.62318 -96.00987 17773 ft 365 kts 329°
2026-04-21 19:38 45.64554 -96.02732 17254 ft 367 kts 329°
2026-04-21 19:38 45.66050 -96.03902 16909 ft 368 kts 329°
2026-04-21 19:38 45.69019 -96.06223 16226 ft 365 kts 330°
2026-04-21 19:39 45.71256 -96.07975 15703 ft 364 kts 330°
2026-04-21 19:39 45.73458 -96.09700 15191 ft 362 kts 330°
2026-04-21 19:39 45.75647 -96.11417 14676 ft 360 kts 330°
2026-04-21 19:39 45.77848 -96.13145 14152 ft 359 kts 330°
2026-04-21 19:40 45.80020 -96.14854 13634 ft 357 kts 330°
2026-04-21 19:40 45.82176 -96.16549 13121 ft 356 kts 330°
2026-04-21 19:40 45.84359 -96.18268 12599 ft 355 kts 330°
2026-04-21 19:40 45.86496 -96.19952 12089 ft 353 kts 330°
2026-04-21 19:41 45.88632 -96.21637 11570 ft 352 kts 330°
2026-04-21 19:41 45.90772 -96.23327 11089 ft 350 kts 330°
2026-04-21 19:41 45.92879 -96.24991 10970 ft 339 kts 330°
2026-04-21 19:41 45.94955 -96.26633 10964 ft 340 kts 330°
2026-04-21 19:42 45.97001 -96.28252 10965 ft 340 kts 330°
2026-04-21 19:42 45.99060 -96.29884 10964 ft 336 kts 330°
2026-04-21 19:42 46.01066 -96.31473 10960 ft 320 kts 330°
2026-04-21 19:42 46.02989 -96.32999 10954 ft 305 kts 330°
2026-04-21 19:43 46.04789 -96.34428 10957 ft 290 kts 330°
2026-04-21 19:43 46.06518 -96.35802 10958 ft 276 kts 330°
2026-04-21 19:43 46.08162 -96.37109 10951 ft 262 kts 330°
2026-04-21 19:43 46.09716 -96.38346 10749 ft 256 kts 330°
2026-04-21 19:44 46.11286 -96.39597 10343 ft 258 kts 330°
2026-04-21 19:44 46.12853 -96.40847 9927 ft 260 kts 330°
2026-04-21 19:44 46.14455 -96.42124 9508 ft 263 kts 330°
2026-04-21 19:44 46.16051 -96.43398 9089 ft 266 kts 330°
2026-04-21 19:45 46.17686 -96.44704 8635 ft 268 kts 330°
2026-04-21 19:45 46.19281 -96.45978 8219 ft 263 kts 330°
2026-04-21 19:45 46.20873 -96.47250 7833 ft 256 kts 331°
2026-04-21 19:45 46.22395 -96.48468 7417 ft 250 kts 331°
2026-04-21 19:46 46.23891 -96.49667 7009 ft 244 kts 331°
2026-04-21 19:46 46.25370 -96.50851 6648 ft 240 kts 331°
2026-04-21 19:46 46.26825 -96.52018 6235 ft 242 kts 331°
2026-04-21 19:46 46.28301 -96.53201 5826 ft 244 kts 332°
2026-04-21 19:47 46.29797 -96.54401 5412 ft 246 kts 332°
2026-04-21 19:47 46.31302 -96.55610 5043 ft 246 kts 332°
2026-04-21 19:47 46.32764 -96.56786 4977 ft 235 kts 332°
2026-04-21 19:47 46.34177 -96.57922 4971 ft 232 kts 332°
2026-04-21 19:48 46.35584 -96.59054 4965 ft 231 kts 332°
2026-04-21 19:48 46.36993 -96.60188 4964 ft 232 kts 332°
2026-04-21 19:48 46.38408 -96.61327 4961 ft 232 kts 332°
2026-04-21 19:48 46.39803 -96.62451 4915 ft 228 kts 332°
2026-04-21 19:49 46.41192 -96.63572 4622 ft 227 kts 332°
2026-04-21 19:49 46.42565 -96.64681 4309 ft 226 kts 332°
2026-04-21 19:49 46.43931 -96.65783 3997 ft 226 kts 332°
2026-04-21 19:49 46.45307 -96.66895 3680 ft 226 kts 332°
2026-04-21 19:50 46.46212 -96.67626 3470 ft 226 kts 332°
2026-04-21 19:50 46.48040 -96.69104 3053 ft 225 kts 332°
2026-04-21 19:50 46.49383 -96.70192 2966 ft 217 kts 332°
2026-04-21 19:50 46.50706 -96.71263 2958 ft 217 kts 332°
2026-04-21 19:51 46.52026 -96.72332 2957 ft 222 kts 332°
2026-04-21 19:51 46.53455 -96.73488 2962 ft 247 kts 332°
2026-04-21 19:51 46.54990 -96.74733 2959 ft 254 kts 332°
2026-04-21 19:51 46.56542 -96.75994 2958 ft 255 kts 332°
2026-04-21 19:52 46.58082 -96.77246 2961 ft 255 kts 332°
2026-04-21 19:52 46.59640 -96.78513 2961 ft 255 kts 332°
2026-04-21 19:52 46.61180 -96.79765 2964 ft 254 kts 332°
2026-04-21 19:52 46.62668 -96.80977 2959 ft 238 kts 332°
2026-04-21 19:53 46.64157 -96.81801 2947 ft 218 kts 352°
2026-04-21 19:53 46.65599 -96.81998 2967 ft 201 kts 359°
2026-04-21 19:53 46.67000 -96.82025 2966 ft 199 kts
2026-04-21 19:53 46.68388 -96.81995 2978 ft 205 kts
2026-04-21 19:54 46.69881 -96.81957 2979 ft 218 kts
2026-04-21 19:54 46.71404 -96.81941 2976 ft 222 kts
2026-04-21 19:54 46.72964 -96.81924 2976 ft 223 kts
2026-04-21 19:54 46.74519 -96.81903 2976 ft 223 kts
2026-04-21 19:55 46.76075 -96.81880 2977 ft 223 kts
2026-04-21 19:55 46.77622 -96.81856 2978 ft 224 kts
2026-04-21 19:55 46.79176 -96.81832 2977 ft 223 kts
2026-04-21 19:55 46.80744 -96.81808 2863 ft 226 kts
2026-04-21 19:56 46.82244 -96.81783 2564 ft 210 kts
2026-04-21 19:56 46.83664 -96.81750 2305 ft 196 kts
2026-04-21 19:56 46.84970 -96.81726 2071 ft 176 kts
2026-04-21 19:56 46.86146 -96.81705 1846 ft 163 kts
2026-04-21 19:57 46.87238 -96.81690 1645 ft 153 kts
2026-04-21 19:57 46.88278 -96.81676 1441 ft 146 kts
2026-04-21 19:57 46.89274 -96.81664 1223 ft 143 kts
2026-04-21 19:57 46.90246 -96.81670 1028 ft 138 kts
2026-04-21 19:58 46.91182 -96.81639 908 ft 131 kts 359°
2026-04-21 19:58 46.92182 -96.81641 1397 ft 149 kts 352°
2026-04-21 19:58 46.92979 -96.82456 1985 ft 141 kts 292°
2026-04-21 19:58 46.92825 -96.83774 1704 ft 144 kts 216°
2026-04-21 19:59 46.91810 -96.84387 1887 ft 180 kts 194°
2026-04-21 19:59 46.90545 -96.84863 2154 ft 182 kts 192°
2026-04-21 19:59 46.89328 -96.85199 2336 ft 176 kts 190°
2026-04-21 19:59 46.88149 -96.85233 2404 ft 172 kts 146°
2026-04-21 20:00 46.87632 -96.83791 2157 ft 169 kts 78°
2026-04-21 20:00 46.88184 -96.82381 1901 ft 161 kts 34°
2026-04-21 20:00 46.89217 -96.81754 1335 ft 166 kts 12°
2026-04-21 20:00 46.90348 -96.81656 996 ft 156 kts
2026-04-21 20:01 46.91345 -96.81641 908 ft 116 kts
2026-04-21 20:01 46.91743 -96.81630 908 ft 39 kts
2026-04-21 20:01 46.91989 -96.81621 908 ft 34 kts
2026-04-21 20:01 46.92238 -96.81615 908 ft 37 kts
2026-04-21 20:02 46.92413 -96.81613 908 ft 38 kts
2026-04-21 20:02 46.92714 -96.81609 908 ft 17 kts
2026-04-21 20:02 46.92807 -96.81646 908 ft 13 kts 300°
2026-04-21 20:02 46.92820 -96.81809 908 ft 18 kts 270°
2026-04-21 20:03 46.92819 -96.81937 908 ft 12 kts 269°
2026-04-21 20:03 46.92817 -96.82048 908 ft 12 kts 269°
2026-04-21 20:03 46.92819 -96.82164 908 ft 11 kts 271°
2026-04-21 20:03 46.92834 -96.82297 905 ft 10 kts 312°
2026-04-21 20:04 46.92899 -96.82305 905 ft 9 kts 50°
2026-04-21 20:04 46.92913 -96.82206 907 ft 9 kts 90°
2026-04-21 20:04 46.92951 -96.82172 908 ft 3 kts 324°
2026-04-21 20:04 46.92965 -96.82173 907 ft 0 kts